Year,Month,Day,Hour,Minute,Value (Times are PST for temperature in C)
2016,12,07,09,22,-3.30
2016,12,07,09,23,-3.20
2016,12,07,09,24,-3.20
2016,12,07,09,25,-3.20
2016,12,07,09,26,-3.20
2016,12,07,09,27,-3.20
2016,12,07,09,28,-3.20
2016,12,07,09,29,-3.10
2016,12,07,09,30,-3.10
2016,12,07,09,31,-3.00
2016,12,07,09,32,-3.00
2016,12,07,09,33,-2.90
2016,12,07,09,34,-2.90
2016,12,07,09,35,-2.90
2016,12,07,09,36,-2.80
2016,12,07,09,37,-2.80
2016,12,07,09,38,-2.70
2016,12,07,09,39,-2.70
2016,12,07,09,40,-2.70
2016,12,07,09,41,-2.60
2016,12,07,09,42,-2.60
2016,12,07,09,43,-2.60
2016,12,07,09,44,-2.50
2016,12,07,09,45,-2.50
2016,12,07,09,46,-2.40
2016,12,07,09,47,-2.40
2016,12,07,09,48,-2.40
2016,12,07,09,49,-2.30
2016,12,07,09,50,-2.30
2016,12,07,09,51,-2.30
2016,12,07,09,52,-2.20
2016,12,07,09,53,-2.20
2016,12,07,09,54,-2.20
2016,12,07,09,55,-2.20
2016,12,07,09,56,-2.20
2016,12,07,09,57,-2.10
2016,12,07,09,58,-2.20
2016,12,07,09,59,-2.20
2016,12,07,10,00,-2.20
2016,12,07,10,01,-2.10
2016,12,07,10,02,-2.10
2016,12,07,10,03,-2.10
2016,12,07,10,04,-2.10
2016,12,07,10,05,-2.10
2016,12,07,10,06,-2.10
2016,12,07,10,07,-2.10
2016,12,07,10,08,-2.00
2016,12,07,10,09,-2.00
2016,12,07,10,10,-2.00
2016,12,07,10,11,-1.90
2016,12,07,10,12,-1.90
2016,12,07,10,13,-1.90
2016,12,07,10,14,-1.90
2016,12,07,10,15,-1.80
2016,12,07,10,16,-1.80
2016,12,07,10,17,-1.80
2016,12,07,10,18,-1.70
2016,12,07,10,19,-1.70
2016,12,07,10,20,-1.70
2016,12,07,10,21,-1.60
2016,12,07,10,22,-1.60
2016,12,07,10,23,-1.60
2016,12,07,10,24,-1.60
2016,12,07,10,25,-1.60
2016,12,07,10,26,-1.50
2016,12,07,10,27,-1.50
2016,12,07,10,28,-1.50
2016,12,07,10,29,-1.40
2016,12,07,10,30,-1.40
2016,12,07,10,31,-1.40
2016,12,07,10,32,-1.30
2016,12,07,10,33,-1.30
2016,12,07,10,34,-1.30
2016,12,07,10,35,-1.30
2016,12,07,10,36,-1.20
2016,12,07,10,37,-1.20
2016,12,07,10,38,-1.10
2016,12,07,10,39,-1.10
2016,12,07,10,40,-1.10
2016,12,07,10,41,-1.10
2016,12,07,10,42,-1.00
2016,12,07,10,43,-1.00
2016,12,07,10,44,-1.00
2016,12,07,10,45,-1.00
2016,12,07,10,46,-0.90
2016,12,07,10,47,-0.90
2016,12,07,10,48,-0.90
2016,12,07,10,49,-0.90
2016,12,07,10,50,-0.90
2016,12,07,10,51,-0.90
2016,12,07,10,52,-0.80
2016,12,07,10,53,-0.80
2016,12,07,10,54,-0.80
2016,12,07,10,55,-0.70
2016,12,07,10,56,-0.70
2016,12,07,10,57,-0.70
2016,12,07,10,58,-0.70
2016,12,07,10,59,-0.60
2016,12,07,11,00,-0.60
2016,12,07,11,01,-0.60
2016,12,07,11,02,-0.60
2016,12,07,11,03,-0.60
2016,12,07,11,04,-0.60
2016,12,07,11,05,-0.60
2016,12,07,11,06,-0.60
2016,12,07,11,07,-0.60
2016,12,07,11,08,-0.60
2016,12,07,11,09,-0.60
2016,12,07,11,10,-0.60
2016,12,07,11,11,-0.60
2016,12,07,11,12,-0.50
2016,12,07,11,13,-0.50
2016,12,07,11,14,-0.40
2016,12,07,11,15,-0.40
2016,12,07,11,16,-0.40
2016,12,07,11,17,-0.30
2016,12,07,11,18,-0.30
2016,12,07,11,19,-0.30
2016,12,07,11,20,-0.20
2016,12,07,11,21,-0.20
2016,12,07,11,22,-0.20
2016,12,07,11,23,-0.20
2016,12,07,11,24,-0.30
2016,12,07,11,25,-0.30
2016,12,07,11,26,-0.30
2016,12,07,11,27,-0.30
2016,12,07,11,28,-0.30
2016,12,07,11,29,-0.30
2016,12,07,11,30,-0.30
2016,12,07,11,31,-0.30
2016,12,07,11,32,-0.30
2016,12,07,11,33,-0.30
2016,12,07,11,34,-0.30
2016,12,07,11,35,-0.30
2016,12,07,11,36,-0.30
2016,12,07,11,37,-0.30
2016,12,07,11,38,-0.30
2016,12,07,11,39,-0.30
2016,12,07,11,40,-0.20
2016,12,07,11,41,-0.20
2016,12,07,11,42,-0.20
2016,12,07,11,43,-0.20
2016,12,07,11,44,-0.20
2016,12,07,11,45,-0.20
2016,12,07,11,46,-0.10
2016,12,07,11,47,-0.10
2016,12,07,11,48,-0.10
2016,12,07,11,49,-0.10
2016,12,07,11,50,-0.20
2016,12,07,11,51,-0.20
2016,12,07,11,52,-0.20
2016,12,07,11,53,-0.20
2016,12,07,11,54,-0.20
2016,12,07,11,55,-0.20
2016,12,07,11,56,-0.20
2016,12,07,11,57,-0.10
2016,12,07,11,58,-0.10
2016,12,07,11,59,-0.10
2016,12,07,12,00,-0.10
2016,12,07,12,01,-0.10
2016,12,07,12,02,-0.10
2016,12,07,12,03,-0.20
2016,12,07,12,04,-0.20
2016,12,07,12,05,-0.20
2016,12,07,12,06,-0.20
2016,12,07,12,07,-0.10
2016,12,07,12,08,-0.10
2016,12,07,12,09,-0.10
2016,12,07,12,10,0.00
2016,12,07,12,11,0.00
2016,12,07,12,12,0.10
2016,12,07,12,13,0.10
2016,12,07,12,14,0.10
2016,12,07,12,15,0.20
2016,12,07,12,16,0.20
2016,12,07,12,17,0.20
2016,12,07,12,18,0.30
2016,12,07,12,19,0.30
2016,12,07,12,20,0.30
2016,12,07,12,21,0.30
2016,12,07,12,22,0.30
2016,12,07,12,23,0.30
2016,12,07,12,24,0.30
2016,12,07,12,25,0.30
2016,12,07,12,26,0.40
2016,12,07,12,27,0.40
2016,12,07,12,28,0.40
2016,12,07,12,29,0.40
2016,12,07,12,30,0.40
2016,12,07,12,31,0.40
2016,12,07,12,32,0.40
2016,12,07,12,33,0.40
2016,12,07,12,34,0.40
2016,12,07,12,35,0.40
2016,12,07,12,36,0.40
2016,12,07,12,37,0.40
2016,12,07,12,38,0.40
2016,12,07,12,39,0.40
2016,12,07,12,40,0.40
2016,12,07,12,41,0.40
2016,12,07,12,42,0.40
2016,12,07,12,43,0.40
2016,12,07,12,44,0.40
2016,12,07,12,45,0.40
2016,12,07,12,46,0.40
2016,12,07,12,47,0.40
2016,12,07,12,48,0.40
2016,12,07,12,49,0.40
2016,12,07,12,50,0.40
2016,12,07,12,51,0.50
2016,12,07,12,52,0.40
2016,12,07,12,53,0.40
2016,12,07,12,54,0.40
2016,12,07,12,55,0.30
2016,12,07,12,56,0.30
2016,12,07,12,57,0.30
2016,12,07,12,58,0.30
2016,12,07,12,59,0.30
2016,12,07,13,00,0.30
2016,12,07,13,01,0.30
2016,12,07,13,02,0.30
2016,12,07,13,03,0.40
2016,12,07,13,04,0.30
2016,12,07,13,05,0.30
2016,12,07,13,06,0.40
2016,12,07,13,07,0.40
2016,12,07,13,08,0.40
2016,12,07,13,09,0.40
2016,12,07,13,10,0.40
2016,12,07,13,11,0.40
2016,12,07,13,12,0.50
2016,12,07,13,13,0.50
2016,12,07,13,14,0.50
2016,12,07,13,15,0.50
2016,12,07,13,16,0.50
2016,12,07,13,17,0.50
2016,12,07,13,18,0.60
2016,12,07,13,19,0.60
2016,12,07,13,20,0.60
2016,12,07,13,21,0.60
2016,12,07,13,22,0.50
2016,12,07,13,23,0.50
2016,12,07,13,24,0.40
2016,12,07,13,25,0.40
2016,12,07,13,26,0.30
2016,12,07,13,27,0.30
2016,12,07,13,28,0.30
2016,12,07,13,29,0.30
2016,12,07,13,30,0.30
2016,12,07,13,31,0.30
2016,12,07,13,32,0.30
2016,12,07,13,33,0.30
2016,12,07,13,34,0.30
2016,12,07,13,35,0.40
2016,12,07,13,36,0.40
2016,12,07,13,37,0.40
2016,12,07,13,38,0.50
2016,12,07,13,39,0.50
2016,12,07,13,40,0.50
2016,12,07,13,41,0.60
2016,12,07,13,42,0.60
2016,12,07,13,43,0.60
2016,12,07,13,44,0.60
2016,12,07,13,45,0.70
2016,12,07,13,46,0.70
2016,12,07,13,47,0.70
2016,12,07,13,48,0.70
2016,12,07,13,49,0.70
2016,12,07,13,50,0.70
2016,12,07,13,51,0.70
2016,12,07,13,52,0.70
2016,12,07,13,53,0.70
2016,12,07,13,54,0.70
2016,12,07,13,55,0.70
2016,12,07,13,56,0.70
2016,12,07,13,57,0.70
2016,12,07,13,58,0.70
2016,12,07,13,59,0.70
2016,12,07,14,00,0.70
2016,12,07,14,01,0.60
2016,12,07,14,02,0.60
2016,12,07,14,03,0.60
2016,12,07,14,04,0.60
2016,12,07,14,05,0.60
2016,12,07,14,06,0.60
2016,12,07,14,07,0.60
2016,12,07,14,08,0.60
2016,12,07,14,09,0.60
2016,12,07,14,10,0.60
2016,12,07,14,11,0.60
2016,12,07,14,12,0.60
2016,12,07,14,13,0.60
2016,12,07,14,14,0.60
2016,12,07,14,15,0.60
2016,12,07,14,16,0.60
2016,12,07,14,17,0.60
2016,12,07,14,18,0.60
2016,12,07,14,19,0.60
2016,12,07,14,20,0.60
2016,12,07,14,21,0.50
2016,12,07,14,22,0.50
2016,12,07,14,23,0.40
2016,12,07,14,24,0.30
2016,12,07,14,25,0.30
2016,12,07,14,26,0.30
2016,12,07,14,27,0.30
2016,12,07,14,28,0.30
2016,12,07,14,29,0.30
2016,12,07,14,30,0.30
2016,12,07,14,31,0.30
2016,12,07,14,32,0.30
2016,12,07,14,33,0.30
2016,12,07,14,34,0.30
2016,12,07,14,35,0.40
2016,12,07,14,36,0.40
2016,12,07,14,37,0.40
2016,12,07,14,38,0.30
2016,12,07,14,39,0.40
2016,12,07,14,40,0.40
2016,12,07,14,41,0.40
2016,12,07,14,42,0.40
2016,12,07,14,43,0.50
2016,12,07,14,44,0.50
2016,12,07,14,45,0.50
2016,12,07,14,46,0.60
2016,12,07,14,47,0.60
2016,12,07,14,48,0.60
2016,12,07,14,49,0.60
2016,12,07,14,50,0.60
2016,12,07,14,51,0.60
2016,12,07,14,52,0.60
2016,12,07,14,53,0.60
2016,12,07,14,54,0.60
2016,12,07,14,55,0.60
2016,12,07,14,56,0.60
2016,12,07,14,57,0.60
2016,12,07,14,58,0.60
2016,12,07,14,59,0.60
2016,12,07,15,00,0.60
2016,12,07,15,01,0.60
2016,12,07,15,02,0.60
2016,12,07,15,03,0.60
2016,12,07,15,04,0.60
2016,12,07,15,05,0.50
2016,12,07,15,06,0.50
2016,12,07,15,07,0.40
2016,12,07,15,08,0.40
2016,12,07,15,09,0.40
2016,12,07,15,10,0.30
2016,12,07,15,11,0.30
2016,12,07,15,12,0.20
2016,12,07,15,13,0.20
2016,12,07,15,14,0.20
2016,12,07,15,15,0.20
2016,12,07,15,16,0.10
2016,12,07,15,17,0.10
2016,12,07,15,18,0.00
2016,12,07,15,19,0.00
2016,12,07,15,20,-0.10
2016,12,07,15,21,-0.10
2016,12,07,15,22,-0.20
2016,12,07,15,23,-0.20
2016,12,07,15,24,-0.20
2016,12,07,15,25,-0.20
2016,12,07,15,26,-0.20
2016,12,07,15,27,-0.20
2016,12,07,15,28,-0.30
2016,12,07,15,29,-0.30
2016,12,07,15,30,-0.30
2016,12,07,15,31,-0.30
2016,12,07,15,32,-0.40
2016,12,07,15,33,-0.40
2016,12,07,15,34,-0.40
2016,12,07,15,35,-0.40
2016,12,07,15,36,-0.40
2016,12,07,15,37,-0.40
2016,12,07,15,38,-0.40
2016,12,07,15,39,-0.50
2016,12,07,15,40,-0.50
2016,12,07,15,41,-0.50
2016,12,07,15,42,-0.60
2016,12,07,15,43,-0.60
2016,12,07,15,44,-0.60
2016,12,07,15,45,-0.60
2016,12,07,15,46,-0.60
2016,12,07,15,47,-0.60
2016,12,07,15,48,-0.70
2016,12,07,15,49,-0.70
2016,12,07,15,50,-0.70
2016,12,07,15,51,-0.70
2016,12,07,15,52,-0.70
2016,12,07,15,53,-0.70
2016,12,07,15,54,-0.70
2016,12,07,15,55,-0.70
2016,12,07,15,56,-0.70
2016,12,07,15,57,-0.80
2016,12,07,15,58,-0.80
2016,12,07,15,59,-0.80
2016,12,07,16,00,-0.80
2016,12,07,16,01,-0.80
2016,12,07,16,02,-0.80
2016,12,07,16,03,-0.80
2016,12,07,16,04,-0.80
2016,12,07,16,05,-0.90
2016,12,07,16,06,-0.90
2016,12,07,16,07,-0.90
2016,12,07,16,08,-0.90
2016,12,07,16,09,-0.90
2016,12,07,16,10,-0.90
2016,12,07,16,11,-1.00
2016,12,07,16,12,-1.00
2016,12,07,16,13,-1.00
2016,12,07,16,14,-1.00
2016,12,07,16,15,-1.10
2016,12,07,16,16,-1.10
2016,12,07,16,17,-1.10
2016,12,07,16,18,-1.10
2016,12,07,16,19,-1.10
2016,12,07,16,20,-1.10
2016,12,07,16,21,-1.20
2016,12,07,16,22,-1.20
2016,12,07,16,23,-1.20
2016,12,07,16,24,-1.20
2016,12,07,16,25,-1.20
2016,12,07,16,26,-1.20
2016,12,07,16,27,-1.20
2016,12,07,16,28,-1.30
2016,12,07,16,29,-1.30
2016,12,07,16,30,-1.30
2016,12,07,16,31,-1.30
2016,12,07,16,32,-1.30
2016,12,07,16,33,-1.30
2016,12,07,16,34,-1.30
2016,12,07,16,35,-1.40
2016,12,07,16,36,-1.40
2016,12,07,16,37,-1.40
2016,12,07,16,38,-1.40
2016,12,07,16,39,-1.40
2016,12,07,16,40,-1.50
2016,12,07,16,41,-1.50
2016,12,07,16,42,-1.50
2016,12,07,16,43,-1.60
2016,12,07,16,44,-1.60
2016,12,07,16,45,-1.60
2016,12,07,16,46,-1.60
2016,12,07,16,47,-1.60
2016,12,07,16,48,-1.70
2016,12,07,16,49,-1.70
2016,12,07,16,50,-1.70
2016,12,07,16,51,-1.70
2016,12,07,16,52,-1.70
2016,12,07,16,53,-1.80
2016,12,07,16,54,-1.80
2016,12,07,16,55,-1.80
2016,12,07,16,56,-1.80
2016,12,07,16,57,-1.80
2016,12,07,16,58,-1.80
2016,12,07,16,59,-1.90
2016,12,07,17,00,-1.90
2016,12,07,17,01,-1.90
2016,12,07,17,02,-1.90
2016,12,07,17,03,-1.90
2016,12,07,17,04,-2.00
2016,12,07,17,05,-2.00
2016,12,07,17,06,-2.00
2016,12,07,17,07,-2.00
2016,12,07,17,08,-2.10
2016,12,07,17,09,-2.10
2016,12,07,17,10,-2.10
2016,12,07,17,11,-2.10
2016,12,07,17,12,-2.10
2016,12,07,17,13,-2.20
2016,12,07,17,14,-2.20
2016,12,07,17,15,-2.20
2016,12,07,17,16,-2.20
2016,12,07,17,17,-2.20
2016,12,07,17,18,-2.20
2016,12,07,17,19,-2.20
2016,12,07,17,20,-2.30
2016,12,07,17,21,-2.30
2016,12,07,17,22,-2.30
2016,12,07,17,23,-2.30
2016,12,07,17,24,-2.30
2016,12,07,17,25,-2.40
2016,12,07,17,26,-2.40
2016,12,07,17,27,-2.40
2016,12,07,17,28,-2.40
2016,12,07,17,29,-2.40
2016,12,07,17,30,-2.50
2016,12,07,17,31,-2.50
2016,12,07,17,32,-2.50
2016,12,07,17,33,-2.60
2016,12,07,17,34,-2.60
2016,12,07,17,35,-2.60
2016,12,07,17,36,-2.60
2016,12,07,17,37,-2.60
2016,12,07,17,38,-2.70
2016,12,07,17,39,-2.70
2016,12,07,17,40,-2.70
2016,12,07,17,41,-2.80
2016,12,07,17,42,-2.80
2016,12,07,17,43,-2.80
2016,12,07,17,44,-2.80
2016,12,07,17,45,-2.80
2016,12,07,17,46,-2.80
2016,12,07,17,47,-2.80
2016,12,07,17,48,-2.90
2016,12,07,17,49,-2.90
2016,12,07,17,50,-2.90
2016,12,07,17,51,-2.90
2016,12,07,17,52,-2.90
2016,12,07,17,53,-2.90
2016,12,07,17,54,-2.90
2016,12,07,17,55,-3.00
2016,12,07,17,56,-3.00
2016,12,07,17,57,-3.00
2016,12,07,17,58,-3.00
2016,12,07,17,59,-3.00
2016,12,07,18,00,-3.10
2016,12,07,18,01,-3.10
2016,12,07,18,02,-3.10
2016,12,07,18,03,-3.20
2016,12,07,18,04,-3.20
2016,12,07,18,05,-3.20
2016,12,07,18,06,-3.20
2016,12,07,18,07,-3.20
2016,12,07,18,08,-3.20
2016,12,07,18,09,-3.20
2016,12,07,18,10,-3.30
2016,12,07,18,11,-3.30
2016,12,07,18,12,-3.30
2016,12,07,18,13,-3.30
2016,12,07,18,14,-3.30
2016,12,07,18,15,-3.30
2016,12,07,18,16,-3.30
2016,12,07,18,17,-3.30
2016,12,07,18,18,-3.30
2016,12,07,18,19,-3.40
2016,12,07,18,20,-3.40
2016,12,07,18,21,-3.40
2016,12,07,18,22,-3.40
2016,12,07,18,23,-3.40
2016,12,07,18,24,-3.40
2016,12,07,18,25,-3.50
2016,12,07,18,26,-3.50
2016,12,07,18,27,-3.50
2016,12,07,18,28,-3.50
2016,12,07,18,29,-3.50
2016,12,07,18,30,-3.50
2016,12,07,18,31,-3.60
2016,12,07,18,32,-3.60
2016,12,07,18,33,-3.60
2016,12,07,18,34,-3.60
2016,12,07,18,35,-3.60
2016,12,07,18,36,-3.60
2016,12,07,18,37,-3.60
2016,12,07,18,38,-3.60
2016,12,07,18,39,-3.60
2016,12,07,18,40,-3.60
2016,12,07,18,41,-3.60
2016,12,07,18,42,-3.70
2016,12,07,18,43,-3.70
2016,12,07,18,44,-3.70
2016,12,07,18,45,-3.70
2016,12,07,18,46,-3.70
2016,12,07,18,47,-3.70
2016,12,07,18,48,-3.70
2016,12,07,18,49,-3.70
2016,12,07,18,50,-3.70
2016,12,07,18,51,-3.70
2016,12,07,18,52,-3.70
2016,12,07,18,53,-3.80
2016,12,07,18,54,-3.80
2016,12,07,18,55,-3.80
2016,12,07,18,56,-3.80
2016,12,07,18,57,-3.80
2016,12,07,18,58,-3.80
2016,12,07,18,59,-3.80
2016,12,07,19,00,-3.80
2016,12,07,19,01,-3.80
2016,12,07,19,02,-3.80
2016,12,07,19,03,-3.80
2016,12,07,19,04,-3.80
2016,12,07,19,05,-3.80
2016,12,07,19,06,-3.80
2016,12,07,19,07,-3.80
2016,12,07,19,08,-3.80
2016,12,07,19,09,-3.80
2016,12,07,19,10,-3.90
2016,12,07,19,11,-3.90
2016,12,07,19,12,-3.90
2016,12,07,19,13,-3.90
2016,12,07,19,14,-3.90
2016,12,07,19,15,-3.90
2016,12,07,19,16,-3.90
2016,12,07,19,17,-3.90
2016,12,07,19,18,-3.90
2016,12,07,19,19,-3.90
2016,12,07,19,20,-3.90
2016,12,07,19,21,-3.90
2016,12,07,19,22,-4.00
2016,12,07,19,23,-4.00
2016,12,07,19,24,-4.00
2016,12,07,19,25,-4.00
2016,12,07,19,26,-4.00
2016,12,07,19,27,-4.00
2016,12,07,19,28,-4.10
2016,12,07,19,29,-4.10
2016,12,07,19,30,-4.10
2016,12,07,19,31,-4.10
2016,12,07,19,32,-4.10
2016,12,07,19,33,-4.10
2016,12,07,19,34,-4.10
2016,12,07,19,35,-4.10
2016,12,07,19,36,-4.10
2016,12,07,19,37,-4.10
2016,12,07,19,38,-4.20
2016,12,07,19,39,-4.20
2016,12,07,19,40,-4.20
2016,12,07,19,41,-4.20
2016,12,07,19,42,-4.20
2016,12,07,19,43,-4.20
2016,12,07,19,44,-4.20
2016,12,07,19,45,-4.20
2016,12,07,19,46,-4.20
2016,12,07,19,47,-4.20
2016,12,07,19,48,-4.20
2016,12,07,19,49,-4.20
2016,12,07,19,50,-4.20
2016,12,07,19,51,-4.30
2016,12,07,19,52,-4.30
2016,12,07,19,53,-4.30
2016,12,07,19,54,-4.30
2016,12,07,19,55,-4.30
2016,12,07,19,56,-4.30
2016,12,07,19,57,-4.30
2016,12,07,19,58,-4.30
2016,12,07,19,59,-4.30
2016,12,07,20,00,-4.30
2016,12,07,20,01,-4.30
2016,12,07,20,02,-4.30
2016,12,07,20,03,-4.30
2016,12,07,20,04,-4.30
2016,12,07,20,05,-4.30
2016,12,07,20,06,-4.30
2016,12,07,20,07,-4.30
2016,12,07,20,08,-4.30
2016,12,07,20,09,-4.30
2016,12,07,20,10,-4.30
2016,12,07,20,11,-4.30
2016,12,07,20,12,-4.30
2016,12,07,20,13,-4.30
2016,12,07,20,14,-4.30
2016,12,07,20,15,-4.30
2016,12,07,20,16,-4.30
2016,12,07,20,17,-4.30
2016,12,07,20,18,-4.30
2016,12,07,20,19,-4.30
2016,12,07,20,20,-4.30
2016,12,07,20,21,-4.30
2016,12,07,20,22,-4.30
2016,12,07,20,23,-4.30
2016,12,07,20,24,-4.40
2016,12,07,20,25,-4.40
2016,12,07,20,26,-4.40
2016,12,07,20,27,-4.40
2016,12,07,20,28,-4.40
2016,12,07,20,29,-4.40
2016,12,07,20,30,-4.50
2016,12,07,20,31,-4.50
2016,12,07,20,32,-4.50
2016,12,07,20,33,-4.50
2016,12,07,20,34,-4.50
2016,12,07,20,35,-4.50
2016,12,07,20,36,-4.60
2016,12,07,20,37,-4.60
2016,12,07,20,38,-4.60
2016,12,07,20,39,-4.60
2016,12,07,20,40,-4.60
2016,12,07,20,41,-4.60
2016,12,07,20,42,-4.60
2016,12,07,20,43,-4.60
2016,12,07,20,44,-4.60
2016,12,07,20,45,-4.70
2016,12,07,20,46,-4.70
2016,12,07,20,47,-4.70
2016,12,07,20,48,-4.70
2016,12,07,20,49,-4.70
2016,12,07,20,50,-4.70
2016,12,07,20,51,-4.70
2016,12,07,20,52,-4.70
2016,12,07,20,53,-4.70
2016,12,07,20,54,-4.80
2016,12,07,20,55,-4.80
2016,12,07,20,56,-4.80
2016,12,07,20,57,-4.80
2016,12,07,20,58,-4.80
2016,12,07,20,59,-4.80
2016,12,07,21,00,-4.90
2016,12,07,21,01,-4.90
2016,12,07,21,02,-4.90
2016,12,07,21,03,-4.90
2016,12,07,21,04,-4.90
2016,12,07,21,05,-4.90
2016,12,07,21,06,-4.90
2016,12,07,21,07,-4.90
2016,12,07,21,08,-5.00
2016,12,07,21,09,-5.00
2016,12,07,21,10,-5.00
2016,12,07,21,11,-5.00
2016,12,07,21,12,-5.00
2016,12,07,21,13,-5.00
2016,12,07,21,14,-5.00
2016,12,07,21,15,-5.10
2016,12,07,21,16,-5.10
2016,12,07,21,17,-5.10
2016,12,07,21,18,-5.10
2016,12,07,21,19,-5.10
2016,12,07,21,20,-5.10
2016,12,07,21,21,-5.10
2016,12,07,21,22,-5.10
2016,12,07,21,23,-5.10
2016,12,07,21,24,-5.10
2016,12,07,21,25,-5.10
2016,12,07,21,26,-5.20
2016,12,07,21,27,-5.20
2016,12,07,21,28,-5.20
2016,12,07,21,29,-5.20
2016,12,07,21,30,-5.20
2016,12,07,21,31,-5.20
2016,12,07,21,32,-5.20
2016,12,07,21,33,-5.20
2016,12,07,21,34,-5.20
2016,12,07,21,35,-5.20
2016,12,07,21,36,-5.20
2016,12,07,21,37,-5.20
2016,12,07,21,38,-5.20
2016,12,07,21,39,-5.20
2016,12,07,21,40,-5.20
2016,12,07,21,41,-5.20
2016,12,07,21,42,-5.20
2016,12,07,21,43,-5.20
2016,12,07,21,44,-5.20
2016,12,07,21,45,-5.20
2016,12,07,21,46,-5.20
2016,12,07,21,47,-5.20
2016,12,07,21,48,-5.30
2016,12,07,21,49,-5.30
2016,12,07,21,50,-5.30
2016,12,07,21,51,-5.30
2016,12,07,21,52,-5.30
2016,12,07,21,53,-5.30
2016,12,07,21,54,-5.30
2016,12,07,21,55,-5.30
2016,12,07,21,56,-5.30
2016,12,07,21,57,-5.30
2016,12,07,21,58,-5.30
2016,12,07,21,59,-5.30
2016,12,07,22,00,-5.30
2016,12,07,22,01,-5.30
2016,12,07,22,02,-5.30
2016,12,07,22,03,-5.30
2016,12,07,22,04,-5.30
2016,12,07,22,05,-5.30
2016,12,07,22,06,-5.30
2016,12,07,22,07,-5.30
2016,12,07,22,08,-5.30
2016,12,07,22,09,-5.40
2016,12,07,22,10,-5.40
2016,12,07,22,11,-5.40
2016,12,07,22,12,-5.40
2016,12,07,22,13,-5.40
2016,12,07,22,14,-5.40
2016,12,07,22,15,-5.40
2016,12,07,22,16,-5.40
2016,12,07,22,17,-5.40
2016,12,07,22,18,-5.40
2016,12,07,22,19,-5.40
2016,12,07,22,20,-5.50
2016,12,07,22,21,-5.50
2016,12,07,22,22,-5.50
2016,12,07,22,23,-5.50
2016,12,07,22,24,-5.50
2016,12,07,22,25,-5.50
2016,12,07,22,26,-5.50
2016,12,07,22,27,-5.50
2016,12,07,22,28,-5.50
2016,12,07,22,29,-5.50
2016,12,07,22,30,-5.50
2016,12,07,22,31,-5.60
2016,12,07,22,32,-5.60
2016,12,07,22,33,-5.60
2016,12,07,22,34,-5.60
2016,12,07,22,35,-5.60
2016,12,07,22,36,-5.60
2016,12,07,22,37,-5.60
2016,12,07,22,38,-5.50
2016,12,07,22,39,-5.50
2016,12,07,22,40,-5.50
2016,12,07,22,41,-5.50
2016,12,07,22,42,-5.50
2016,12,07,22,43,-5.50
2016,12,07,22,44,-5.50
2016,12,07,22,45,-5.40
2016,12,07,22,46,-5.40
2016,12,07,22,47,-5.40
2016,12,07,22,48,-5.30
2016,12,07,22,49,-5.30
2016,12,07,22,50,-5.30
2016,12,07,22,51,-5.30
2016,12,07,22,52,-5.30
2016,12,07,22,53,-5.30
2016,12,07,22,54,-5.20
2016,12,07,22,55,-5.20
2016,12,07,22,56,-5.20
2016,12,07,22,57,-5.20
2016,12,07,22,58,-5.20
2016,12,07,22,59,-5.20
2016,12,07,23,00,-5.20
2016,12,07,23,01,-5.20
2016,12,07,23,02,-5.20
2016,12,07,23,03,-5.20
2016,12,07,23,04,-5.20
2016,12,07,23,05,-5.20
2016,12,07,23,06,-5.20
2016,12,07,23,07,-5.20
2016,12,07,23,08,-5.20
2016,12,07,23,09,-5.20
2016,12,07,23,10,-5.20
2016,12,07,23,11,-5.20
2016,12,07,23,12,-5.20
2016,12,07,23,13,-5.20
2016,12,07,23,14,-5.20
2016,12,07,23,15,-5.20
2016,12,07,23,16,-5.20
2016,12,07,23,17,-5.20
2016,12,07,23,18,-5.20
2016,12,07,23,19,-5.20
2016,12,07,23,20,-5.20
2016,12,07,23,21,-5.20
2016,12,07,23,22,-5.20
2016,12,07,23,23,-5.20
2016,12,07,23,24,-5.20
2016,12,07,23,25,-5.20
2016,12,07,23,26,-5.20
2016,12,07,23,27,-5.30
2016,12,07,23,28,-5.30
2016,12,07,23,29,-5.30
2016,12,07,23,30,-5.30
2016,12,07,23,31,-5.30
2016,12,07,23,32,-5.30
2016,12,07,23,33,-5.30
2016,12,07,23,34,-5.30
2016,12,07,23,35,-5.30
2016,12,07,23,36,-5.30
2016,12,07,23,37,-5.30
2016,12,07,23,38,-5.30
2016,12,07,23,39,-5.30
2016,12,07,23,40,-5.30
2016,12,07,23,41,-5.30
2016,12,07,23,42,-5.30
2016,12,07,23,43,-5.30
2016,12,07,23,44,-5.30
2016,12,07,23,45,-5.30
2016,12,07,23,46,-5.30
2016,12,07,23,47,-5.30
2016,12,07,23,48,-5.30
2016,12,07,23,49,-5.30
2016,12,07,23,50,-5.30
2016,12,07,23,51,-5.30
2016,12,07,23,52,-5.30
2016,12,07,23,53,-5.30
2016,12,07,23,54,-5.30
2016,12,07,23,55,-5.30
2016,12,07,23,56,-5.40
2016,12,07,23,57,-5.40
2016,12,07,23,58,-5.40
2016,12,07,23,59,-5.40
